GFSNW_sfc_dewp_081.txt.gz
Dewpoint
43 44 44 45 44 45 45 40 32 45 48 35 34 31 28 29 26 27 23 28 27 26 26 24 24 27 27 36 36 35 37 31 22 21 26 24 24 23 25 27 27 29 26 22
44 44 45 45 45 46 43 36 36 45 44 29 29 35 33 27 25 26 28 26 28 28 24 19 24 28 32 36 33 32 33 34 24 20 20 21 23 26 24 25 30 27 29 25
44 45 45 45 45 46 43 36 30 37 40 38 31 29 32 31 29 26 29 29 29 28 27 27 25 26 27 31 26 42 37 34 33 25 25 27 23 25 27 27 27 25 27 26
45 45 46 46 46 47 43 36 31 34 30 32 34 32 29 28 27 28 27 25 29 27 25 26 25 25 25 26 31 40 36 25 29 33 32 33 31 23 23 27 28 26 27 26
45 45 45 46 46 46 42 32 33 36 32 33 34 31 29 27 29 27 26 25 26 26 27 27 23 24 25 25 29 27 34 32 34 32 32 32 30 27 23 26 26 27 28 28
44 45 46 47 46 46 40 40 40 37 33 34 33 32 29 29 29 30 27 27 26 29 30 31 30 30 29 28 28 28 29 34 34 27 32 33 28 27 25 24 27 28 27 29
44 44 44 44 45 46 43 41 40 36 31 32 32 32 31 29 29 30 30 29 30 32 33 32 32 32 31 31 30 30 29 32 34 29 33 26 28 31 29 27 27 31 31 31
45 44 45 44 44 45 44 43 39 35 30 33 31 32 32 32 34 32 32 31 33 36 35 31 27 27 28 29 30 31 32 29 32 29 30 31 31 34 33 30 28 31 31 30
44 45 45 45 45 44 42 43 44 40 33 31 32 32 32 31 32 34 34 35 38 35 35 32 25 21 24 24 28 30 30 30 34 33 27 23 31 34 35 34 30 35 35 36
44 45 45 45 45 45 42 41 42 38 34 35 35 33 34 34 33 32 33 34 36 36 33 28 24 23 25 20 26 30 31 33 30 30 29 31 34 35 38 29 31 37 39 37
45 45 45 45 45 45 43 40 43 38 34 36 38 37 36 34 32 31 33 34 35 34 31 29 30 28 26 23 24 30 31 31 31 31 29 26 37 38 34 38 41 41 40 39
46 46 45 46 45 45 44 40 43 43 38 38 43 42 41 35 34 33 34 33 32 34 31 32 31 29 29 26 21 27 24 32 31 33 32 37 39 40 42 43 43 42 42 42
46 46 46 46 46 46 44 41 42 41 36 37 38 37 40 41 39 39 33 35 36 35 38 34 33 28 29 27 27 24 25 32 33 32 31 35 36 38 40 40 42 43 44 41
46 46 46 46 46 46 45 42 43 40 38 33 33 39 37 41 41 39 39 38 41 39 40 36 33 30 32 29 27 27 27 30 30 32 33 37 35 38 40 40 41 40 41 41
46 46 46 46 46 46 45 44 43 42 37 31 31 40 40 38 39 40 39 38 39 41 37 34 33 33 35 34 33 30 34 32 32 30 38 38 38 38 40 40 41 41 41 40
46 46 46 46 46 46 42 36 42 42 43 35 30 38 42 43 40 39 38 39 41 41 37 36 36 38 36 33 29 35 36 35 34 35 36 36 37 38 37 38 34 32 33 36
46 46 46 46 46 43 38 36 40 43 43 36 30 32 40 43 42 41 40 40 41 41 38 37 36 37 36 32 30 32 32 31 32 34 35 36 37 35 34 35 31 30 28 27
45 46 46 44 44 45 42 43 42 42 39 37 29 32 36 40 37 37 42 39 39 40 38 39 36 38 36 31 30 29 28 29 33 31 33 35 34 31 30 31 31 28 26 26
45 44 45 43 42 40 42 43 44 45 38 31 32 30 30 39 35 36 36 38 33 36 34 36 37 34 22 25 27 26 27 28 29 30 32 32 31 28 26 27 27 26 25 24
42 41 38 33 40 44 43 41 38 36 38 35 31 35 32 37 33 32 33 32 32 30 33 36 28 23 27 26 27 25 26 26 27 27 29 29 29 27 25 24 24 23 23 22
41 36 33 42 43 40 36 32 32 32 30 32 33 34 33 36 32 32 33 30 31 27 31 31 25 19 22 24 24 24 24 25 25 26 28 27 27 26 24 23 22 22 21 19
41 39 39 36 29 27 28 28 31 29 27 30 32 32 34 34 36 33 34 30 31 26 29 22 15 20 20 20 20 21 22 23 23 24 24 25 25 25 23 21 20 20 19 19
34 30 23 23 19 14 17 18 22 23 26 28 32 30 31 33 34 33 33 28 25 27 19 14 17 20 19 19 19 19 20 20 20 21 21 21 21 22 21 19 20 19 18 17
23 20 11 10 8 16 16 18 22 26 26 26 30 31 31 31 28 28 22 22 23 16 11 11 16 19 20 20 20 18 19 19 19 19 20 19 18 18 18 18 18 16 15 15
18 16 9 12 18 19 20 22 24 23 25 28 32 29 26 22 20 21 20 15 10 12 10 15 18 20 20 20 19 19 18 19 18 18 17 17 17 16 16 17 17 16 15 14
17 14 13 14 15 15 16 17 19 22 22 26 26 23 18 17 16 11 10 9 7 10 14 17 18 18 19 19 20 20 20 20 19 19 18 17 16 15 15 16 15 14 13 12
15 13 16 13 13 13 15 17 17 20 21 18 18 13 13 16 10 8 11 7 11 14 15 16 18 17 17 18 18 18 20 19 19 18 18 17 18 17 14 13 15 14 14 13

GFSNW_sfc_dewp_084.txt.gz
Dewpoint
41 41 41 42 43 45 44 40 32 39 48 34 34 32 28 32 23 24 23 26 26 23 23 20 19 18 25 30 30 29 35 33 23 20 23 24 22 22 24 23 18 24 24 21
43 44 43 43 44 44 43 36 35 42 44 30 29 33 35 28 24 25 23 22 24 24 23 19 22 22 28 29 27 28 29 34 26 21 22 21 21 22 23 24 25 25 29 23
44 44 45 45 45 45 45 36 31 36 40 37 32 26 29 34 31 24 25 26 26 26 25 26 22 23 23 30 26 38 32 25 29 27 29 31 29 28 24 24 26 24 23 22
44 44 45 45 45 45 44 36 32 30 31 32 33 32 28 28 30 26 26 25 26 25 24 25 25 26 26 26 30 31 31 24 21 22 24 25 26 28 28 25 23 25 24 22
45 45 45 46 45 46 41 33 34 34 27 27 30 33 28 27 23 28 26 25 24 26 26 25 24 26 27 25 27 29 29 31 30 29 27 26 27 27 28 27 26 22 22 24
44 45 46 46 46 46 40 40 40 38 31 31 32 31 31 29 29 28 26 26 26 26 26 29 32 32 31 30 28 29 29 30 30 24 26 28 26 29 30 26 26 25 25 26
44 45 44 44 46 46 43 41 40 35 29 29 27 27 30 27 26 27 28 28 28 31 36 36 34 32 30 30 30 30 28 28 31 26 30 24 27 36 36 30 26 25 24 25
44 44 45 45 45 44 44 43 40 36 32 30 29 29 32 30 33 33 32 30 30 38 37 33 27 28 28 27 28 29 30 28 29 26 26 27 31 32 37 35 28 26 25 26
45 45 45 45 45 44 43 44 44 41 34 31 28 30 29 29 30 35 34 35 39 39 36 34 25 20 20 20 24 27 26 30 28 27 26 21 27 31 38 35 33 35 35 36
45 45 45 45 45 45 43 40 44 40 36 31 29 29 30 33 33 32 35 38 37 39 34 30 25 22 21 19 22 28 28 28 27 26 28 26 32 35 37 35 37 41 40 38
45 45 45 45 45 45 44 41 44 38 36 35 34 32 31 32 35 32 37 36 36 34 33 30 27 26 22 20 20 32 30 27 28 27 29 25 34 32 33 40 43 41 43 40
45 46 46 45 45 45 44 40 44 43 38 38 41 41 39 34 34 35 38 31 35 34 31 31 29 30 32 24 22 21 21 35 34 31 27 32 33 36 39 39 40 40 42 43
46 46 46 46 46 45 44 42 43 40 36 36 38 36 40 41 40 40 33 35 35 35 35 35 33 28 26 27 24 24 23 29 29 27 30 31 34 37 39 40 40 41 41 39
46 46 46 46 46 45 44 42 43 41 38 33 33 36 37 41 41 39 38 35 37 38 37 37 35 31 30 28 25 25 24 28 24 24 26 33 27 36 38 38 39 39 41 41
46 46 46 46 46 46 44 44 43 42 35 31 31 37 37 39 41 38 38 37 38 40 37 38 34 31 34 34 33 26 27 30 29 29 37 37 36 37 38 37 36 35 37 42
45 45 46 47 45 46 43 36 43 43 44 37 30 35 38 37 38 39 38 38 39 40 38 38 36 35 35 34 28 35 34 34 34 35 35 36 37 38 36 36 35 32 32 33
46 45 46 46 46 43 39 37 41 44 45 38 33 33 35 39 36 38 40 39 40 40 39 38 36 36 36 36 34 31 30 30 33 33 34 35 35 34 33 33 34 31 31 31
45 46 45 45 45 44 42 43 42 42 40 38 33 33 35 38 37 36 40 39 40 39 39 39 36 38 38 31 27 27 27 28 32 30 30 34 34 31 30 31 31 30 29 29
45 45 44 43 42 39 42 43 42 46 39 33 33 32 31 39 37 38 38 39 35 38 37 37 39 33 27 24 25 25 25 26 26 27 29 31 31 28 26 27 28 29 27 27
43 43 38 34 41 44 43 41 38 38 38 38 34 36 33 37 37 36 34 36 35 33 36 37 31 25 26 25 24 24 25 25 25 25 27 27 27 27 25 24 25 25 25 24
41 37 36 41 42 41 38 34 34 34 32 34 34 35 35 37 35 34 35 34 35 30 33 33 27 22 21 22 22 24 24 24 25 25 26 26 26 26 24 22 22 22 22 22
40 38 38 36 31 32 33 31 33 32 29 34 34 34 34 36 38 35 35 33 34 28 31 27 21 20 18 19 19 20 22 22 22 23 24 25 25 24 22 20 19 19 19 19
31 28 24 24 22 21 22 22 26 28 28 31 33 33 35 36 38 34 34 31 26 29 24 19 18 18 18 19 19 19 19 20 20 20 21 21 21 22 21 19 19 18 17 17
24 23 17 19 17 20 20 22 24 28 29 28 33 34 33 33 32 32 28 26 28 22 18 14 18 19 20 19 20 18 19 19 19 19 20 19 18 17 17 17 17 16 15 16
22 21 17 18 21 22 23 24 27 25 26 30 34 31 28 27 25 25 25 21 16 15 15 18 20 20 19 19 19 19 18 19 19 19 18 18 18 17 17 18 17 17 16 16
19 17 18 20 22 21 22 22 23 24 25 30 30 28 24 20 19 17 15 13 12 14 18 20 20 18 19 19 19 19 20 20 19 19 18 18 17 16 16 16 15 15 14 13
17 17 20 20 20 18 20 20 20 22 27 25 23 20 18 19 15 12 13 13 15 18 18 19 19 19 19 19 19 19 19 19 19 18 18 18 18 18 16 13 15 15 14 13

GFSNW_sfc_dewp_087.txt.gz
Dewpoint
42 42 42 42 42 43 40 38 32 34 46 36 36 30 29 33 28 22 20 24 24 22 19 19 18 17 21 27 27 27 33 33 24 19 19 19 18 19 18 19 19 19 20 18
42 43 43 43 43 43 37 34 32 37 45 30 29 26 29 33 28 25 22 19 20 20 20 18 20 21 25 27 23 27 26 30 25 21 20 21 21 22 21 22 23 22 26 21
42 43 44 44 43 43 43 37 33 31 40 35 32 26 23 25 32 32 22 23 21 21 22 23 24 21 23 27 25 34 30 22 22 22 27 27 23 20 22 23 24 22 21 21
43 44 44 44 45 44 45 37 33 27 31 31 28 27 27 26 23 31 27 27 26 22 21 22 24 26 25 26 32 28 26 22 20 18 17 18 23 23 23 23 24 23 22 20
44 44 45 45 45 45 41 33 32 28 24 24 28 27 25 22 29 32 28 27 24 23 22 22 26 31 30 29 28 28 31 27 26 23 21 21 19 21 21 21 23 23 23 22
44 44 45 46 46 44 39 40 36 36 29 27 26 25 26 23 26 26 26 25 24 23 26 27 30 30 31 30 30 29 30 29 28 24 19 25 25 21 21 25 29 27 23 23
45 45 45 45 46 46 42 40 39 34 29 28 27 23 22 25 24 25 28 26 26 28 34 33 32 31 30 31 30 29 30 28 29 26 24 19 18 31 32 33 34 35 30 24
45 45 45 45 45 46 43 43 40 36 32 25 23 27 25 24 28 29 31 27 31 38 36 32 27 27 27 28 28 28 29 28 31 26 23 20 18 24 27 29 30 37 35 22
45 45 45 45 45 44 45 43 44 41 34 29 24 23 24 28 29 30 29 34 41 38 37 35 25 23 22 21 22 26 26 29 29 26 20 20 30 30 36 36 33 41 42 38
44 44 45 45 45 45 43 42 44 41 37 31 29 27 29 32 31 30 35 39 38 38 36 31 27 25 20 20 21 28 27 29 27 26 23 25 32 33 37 31 36 40 42 43
44 44 45 45 45 44 45 41 44 40 37 33 34 30 29 30 33 34 39 37 37 35 33 30 27 27 23 20 20 30 28 28 29 27 22 23 32 33 35 39 43 42 46 46
45 45 45 45 45 45 45 41 43 43 38 37 40 37 38 34 30 36 39 31 36 34 34 31 30 29 31 23 22 26 29 30 31 24 25 38 34 39 38 39 39 39 40 41
46 45 46 46 46 45 44 43 44 40 35 37 39 37 38 39 39 38 34 36 35 36 36 37 34 30 27 29 24 28 23 34 37 35 35 37 34 38 36 36 37 37 38 41
46 46 46 46 46 46 45 42 43 39 38 34 33 36 37 39 39 39 40 36 38 40 39 39 36 33 28 27 27 27 26 29 24 23 35 34 38 36 37 36 37 36 36 40
46 46 46 46 46 46 45 44 42 38 34 34 30 36 36 38 39 38 39 40 40 42 38 37 34 32 32 31 31 28 33 34 31 35 36 36 35 36 36 35 35 34 34 35
46 46 46 46 46 46 43 35 43 39 42 38 32 33 36 38 39 38 38 42 42 41 39 38 36 35 34 33 29 34 32 33 34 34 34 35 36 35 34 34 34 34 34 33
46 45 46 47 46 45 38 38 41 42 45 38 34 32 34 37 38 39 40 41 41 41 38 38 37 36 36 36 32 30 29 29 32 31 33 34 34 33 32 32 33 35 32 32
45 45 46 46 45 43 41 43 43 43 40 39 33 33 35 37 37 36 41 39 40 40 39 39 36 36 39 32 28 26 25 27 30 28 29 33 32 31 29 29 29 32 30 30
46 46 46 43 41 39 43 43 43 43 39 33 35 31 31 37 38 39 39 40 34 39 36 36 38 35 29 26 25 24 24 25 25 26 28 29 29 29 28 28 27 28 28 27
43 43 38 33 41 43 43 41 37 39 38 38 35 32 35 37 37 36 36 38 35 33 35 38 36 27 27 24 23 23 24 24 24 25 26 27 28 28 27 25 25 25 25 24
41 38 36 41 43 42 39 35 34 34 33 35 34 34 35 38 34 36 38 35 36 31 33 34 29 23 22 22 23 24 23 23 23 23 24 25 25 25 25 23 22 21 20 20
40 39 39 38 36 35 33 32 33 29 28 34 34 35 36 37 39 36 36 34 35 30 34 32 25 21 19 19 19 20 22 22 22 22 23 24 24 25 23 21 19 18 18 18
35 31 28 29 28 28 29 26 28 30 31 33 34 33 37 36 38 37 36 32 29 33 30 22 22 19 19 19 19 19 19 20 20 20 21 21 21 22 21 20 20 20 19 19
26 27 22 24 23 23 24 25 27 29 30 30 32 34 33 35 33 34 28 29 31 26 23 19 21 21 21 20 20 18 20 20 20 20 20 19 18 18 18 19 19 18 17 17
25 24 21 21 25 26 26 28 30 28 29 31 34 34 32 30 29 29 29 26 21 20 20 21 22 20 20 20 20 19 19 20 20 20 18 19 18 18 18 19 19 18 18 17
23 21 23 26 28 26 26 26 26 27 29 32 34 32 28 24 25 22 20 18 17 19 21 22 20 19 20 20 20 20 21 20 20 19 18 17 17 16 17 17 17 16 16 14
21 21 23 25 24 23 23 25 24 27 30 29 27 23 21 24 20 15 16 17 19 21 20 20 20 20 20 20 21 21 20 20 20 19 19 19 20 19 17 14 16 16 15 14

GFSNW_sfc_dewp_090.txt.gz
Dewpoint
41 41 43 43 43 43 39 33 32 35 43 35 35 30 24 27 21 25 31 30 25 30 25 22 17 15 26 27 27 25 32 31 27 19 18 16 15 13 12 16 16 22 22 20
42 42 42 43 43 43 37 32 28 38 44 29 26 24 22 22 22 25 26 29 18 22 19 18 17 20 27 27 24 26 26 25 24 20 19 20 20 19 17 18 20 20 23 23
41 41 42 43 43 43 41 37 31 29 40 33 29 25 21 20 21 27 31 29 26 18 15 18 19 20 23 28 26 33 29 23 21 20 26 27 26 26 18 20 22 21 21 20
42 42 42 43 44 44 43 37 32 28 30 30 26 25 23 26 22 20 27 33 30 22 16 15 17 19 22 28 34 30 26 21 21 17 15 15 15 16 23 23 21 21 23 20
44 43 44 44 44 44 40 33 31 27 25 30 27 24 22 19 20 27 28 25 27 23 26 22 20 27 29 29 29 27 29 29 25 22 20 19 17 16 16 20 20 19 19 21
45 44 45 45 45 43 39 36 31 32 27 25 24 27 25 19 20 21 28 33 27 25 25 25 30 32 34 34 29 29 29 29 28 23 22 20 22 22 17 15 19 20 25 30
45 45 45 45 46 44 42 39 32 32 27 27 25 22 20 21 22 23 24 35 34 32 32 33 30 29 28 28 28 29 29 27 29 27 26 18 19 18 28 24 27 29 28 28
45 46 45 45 45 46 42 42 38 34 29 25 24 26 28 25 24 24 24 26 35 38 33 29 25 26 26 26 28 28 29 27 30 25 23 21 20 19 24 27 27 38 40 41
45 45 45 45 45 44 44 41 42 39 33 28 23 23 23 27 29 28 27 39 41 39 36 31 23 21 22 21 23 27 27 28 29 27 21 18 27 37 35 32 29 39 40 41
45 45 45 45 45 45 43 43 43 39 34 34 29 29 28 27 28 30 30 38 38 38 33 29 24 23 22 23 23 26 27 30 28 28 24 23 28 38 41 30 33 40 42 42
44 45 45 45 45 45 45 42 43 39 34 36 32 31 32 32 35 33 36 37 36 35 32 28 26 27 30 21 19 32 28 28 29 28 23 22 38 34 36 38 39 39 40 42
45 44 45 45 45 45 45 40 43 44 37 37 40 40 38 36 36 38 39 35 36 34 31 29 30 30 34 24 21 27 29 29 30 27 26 39 41 39 36 36 36 36 38 38
46 45 45 45 45 45 44 42 44 41 36 36 36 33 36 39 40 41 36 37 36 37 37 37 36 32 30 29 25 33 31 30 34 32 32 37 40 38 36 36 36 35 35 36
46 46 45 45 45 45 44 42 43 39 37 32 30 35 35 35 36 39 41 38 37 39 41 38 37 36 32 30 31 30 34 36 33 33 36 38 39 36 35 34 35 34 34 35
46 46 46 46 46 46 45 44 43 40 34 32 30 35 35 36 37 36 38 40 39 41 38 38 34 33 35 34 33 35 36 34 34 36 34 35 36 34 34 34 34 34 34 34
46 46 46 46 46 45 43 34 43 43 42 37 32 34 33 37 38 38 39 41 41 41 39 37 35 36 37 34 31 32 30 31 32 31 32 34 34 33 32 32 32 34 33 33
45 46 46 46 46 45 38 37 40 42 45 37 33 32 33 35 37 40 41 42 41 40 38 38 36 37 37 36 33 33 29 29 30 30 31 32 32 31 31 31 31 34 32 31
46 46 46 46 46 42 40 46 43 43 41 38 34 34 35 36 37 37 42 40 40 39 38 38 35 38 38 31 28 25 24 26 28 27 29 31 30 30 29 29 29 30 28 28
46 46 46 42 40 37 42 44 43 45 40 33 36 32 32 39 39 39 40 40 33 39 35 34 37 36 27 27 25 23 23 24 24 25 28 28 28 28 28 26 27 27 26 25
43 42 38 32 41 44 43 41 37 37 38 38 34 33 34 37 37 36 36 38 34 32 35 38 35 25 26 24 24 23 23 23 23 23 24 25 25 26 26 24 24 23 23 23
43 38 36 42 44 42 38 34 34 34 32 34 33 34 34 39 34 34 38 34 34 28 32 33 30 23 23 23 23 24 23 22 23 23 23 23 24 25 25 23 21 20 20 20
39 39 41 41 39 36 33 31 32 30 27 34 35 35 37 37 38 37 36 33 35 28 36 33 24 23 20 20 20 21 21 22 21 22 22 22 22 24 21 20 19 19 19 20
36 32 30 30 31 30 28 25 27 29 32 34 35 33 36 37 36 34 35 31 31 34 31 22 21 20 19 19 19 19 19 19 20 19 19 19 18 19 20 19 20 20 20 20
29 30 22 27 24 24 24 25 27 29 30 31 33 34 35 34 33 33 29 31 33 28 24 18 20 21 21 20 20 19 19 19 20 19 18 18 17 18 18 18 18 16 15 16
26 26 22 22 26 26 28 31 30 28 29 31 33 34 35 32 29 31 28 26 21 20 18 20 21 21 20 20 20 20 19 20 19 18 18 18 17 16 16 18 18 18 17 16
23 22 25 27 28 26 25 26 26 30 30 31 33 32 28 26 28 24 21 23 17 19 21 23 20 20 20 20 20 20 20 20 19 18 17 17 16 16 16 16 16 16 15 14
22 22 25 28 26 24 25 27 26 29 30 29 28 23 23 25 19 15 17 17 20 20 20 20 20 20 20 20 21 21 20 19 19 18 19 19 19 18 15 14 15 15 15 15

GFSNW_sfc_dewp_093.txt.gz
Dewpoint
41 41 41 41 42 43 40 35 27 35 40 31 31 26 25 27 22 23 26 32 30 34 31 28 31 33 35 37 31 27 29 32 28 26 27 28 14 11 12 14 14 18 20 17
42 43 43 41 41 42 38 33 29 34 42 22 26 28 26 25 24 22 22 29 32 30 29 26 30 30 32 32 30 26 25 26 25 22 25 31 29 18 15 17 17 15 20 20
41 41 41 42 43 41 41 34 23 28 37 36 32 27 27 24 23 21 21 26 28 29 26 25 24 25 31 32 28 35 30 25 23 21 23 26 22 21 21 28 24 18 15 14
43 43 42 43 43 43 39 32 28 30 25 28 30 28 27 25 24 26 24 28 26 27 28 26 19 22 30 30 35 33 29 23 25 22 21 19 19 17 17 15 30 29 27 24
44 44 43 44 44 43 38 31 30 29 26 27 33 31 25 23 22 27 25 25 25 29 27 28 26 28 31 32 31 31 34 30 30 27 25 24 21 21 19 17 17 19 22 21
44 45 45 45 44 43 37 36 34 32 27 27 27 28 30 25 24 23 24 28 29 29 33 34 35 33 33 34 33 30 31 31 28 26 26 26 23 23 20 20 19 19 21 34
44 45 45 45 45 44 40 38 34 31 23 24 22 22 24 24 24 25 26 32 32 33 39 38 33 31 31 34 33 30 30 30 29 27 26 18 24 23 23 30 36 38 39 40
45 46 45 46 45 45 41 41 37 32 25 23 23 25 26 30 32 28 28 32 37 40 38 32 25 25 27 28 28 27 30 29 26 25 24 25 23 34 36 36 36 39 38 38
45 45 46 46 46 46 43 41 41 37 31 25 25 25 25 28 29 29 30 39 40 40 35 28 22 21 26 23 23 27 28 31 28 26 23 18 31 36 39 37 33 39 40 41
46 45 45 46 46 45 43 41 42 38 32 31 28 26 26 30 30 29 31 35 36 38 33 25 24 23 22 24 28 26 27 28 25 25 26 26 37 38 40 33 33 38 39 41
46 46 45 45 45 45 42 40 42 38 33 33 35 34 32 32 33 31 34 34 35 34 27 26 24 23 27 29 29 28 27 29 26 26 26 21 39 37 36 37 38 37 38 39
46 46 45 45 45 45 43 40 42 42 37 36 39 38 39 39 39 38 37 36 35 34 29 29 29 26 28 32 24 34 28 30 27 28 28 39 40 38 37 37 35 35 36 37
46 47 45 45 45 45 43 39 42 41 35 34 34 32 33 36 40 45 35 37 39 37 38 34 33 27 32 27 27 31 34 37 34 32 37 40 39 38 35 35 36 34 35 36
46 46 46 45 45 45 43 40 43 40 36 28 29 33 34 35 37 45 42 39 39 40 39 34 32 32 37 34 35 32 37 37 37 36 38 36 34 34 34 34 35 34 34 35
46 46 46 46 45 45 44 43 42 40 34 29 31 34 34 37 36 37 41 41 39 37 34 33 33 36 36 37 35 32 35 34 33 31 35 36 32 32 33 32 32 34 33 32
45 46 46 46 45 44 43 34 42 42 39 35 29 39 37 37 38 37 37 39 39 39 37 34 37 38 38 34 31 29 29 31 31 30 31 32 32 31 31 31 31 32 31 29
45 45 46 46 46 44 37 36 39 43 43 36 30 32 37 38 38 38 38 39 40 40 37 36 37 36 38 33 29 31 32 33 27 28 30 30 30 29 29 29 30 30 28 26
46 45 46 46 46 43 39 43 44 42 40 37 30 31 36 39 36 36 40 39 40 38 37 37 36 37 37 27 25 26 29 27 27 25 28 28 29 28 27 27 28 27 25 25
46 46 46 41 40 37 40 45 43 43 39 31 29 27 30 39 36 38 39 39 32 37 32 34 35 31 23 26 26 26 25 23 23 24 25 25 26 26 26 24 24 24 24 23
44 41 37 32 40 44 44 40 35 37 37 36 33 35 33 38 36 34 34 35 33 31 32 37 28 23 28 25 24 24 24 23 23 22 21 22 23 26 25 23 22 23 21 20
42 37 35 42 44 40 37 32 32 32 30 31 33 34 32 37 32 31 32 32 32 25 30 31 27 22 26 27 24 23 23 23 23 23 23 22 23 24 23 20 19 19 18 18
40 39 42 42 38 35 31 27 30 28 26 32 29 32 36 35 38 33 33 30 31 24 34 30 18 21 21 21 20 19 21 22 21 21 20 19 19 20 19 18 17 17 18 18
40 35 32 32 30 26 22 22 24 28 31 33 33 33 34 33 34 32 33 28 27 30 25 17 17 21 20 20 20 19 19 19 18 17 17 17 17 17 17 15 15 14 14 15
30 26 14 21 22 22 23 25 26 28 29 30 32 32 31 33 30 32 28 29 28 24 17 11 18 20 20 20 20 19 19 19 18 16 14 15 15 14 15 14 13 12 12 13
25 24 19 19 24 26 25 29 28 28 30 30 32 32 33 29 25 29 26 23 16 16 11 16 19 20 19 19 20 19 18 15 14 11 13 11 12 12 12 13 13 12 11 11
24 23 23 25 23 21 21 22 22 29 29 30 31 30 25 23 24 19 14 19 11 13 18 19 18 17 17 16 18 16 18 13 13 14 13 12 10 11 11 11 12 13 11 10
23 21 25 25 24 21 22 25 25 30 29 28 28 24 23 27 20 15 18 13 16 17 18 19 18 16 15 18 18 16 15 14 16 16 17 15 15 13 12 10 12 12 12 11

GFSNW_sfc_dewp_096.txt.gz
Dewpoint
41 42 42 42 41 41 40 34 21 32 39 29 32 22 27 28 24 25 24 30 28 29 35 31 29 30 34 38 38 31 31 33 28 26 30 31 25 19 24 25 22 25 24 21
42 42 42 41 41 42 40 32 29 34 41 25 25 28 28 26 24 24 24 26 29 32 32 30 31 34 34 36 37 33 29 27 25 23 30 33 32 30 24 28 20 16 18 19
42 42 42 41 42 40 40 34 24 27 34 36 31 26 24 24 28 25 24 22 24 26 28 30 28 31 32 33 35 39 31 25 22 21 22 27 28 31 23 26 28 25 22 19
43 43 43 42 42 42 41 32 23 28 28 27 31 29 31 26 24 27 29 25 24 23 25 26 27 32 34 36 37 34 31 22 27 27 25 23 21 25 23 21 24 26 30 29
44 45 44 44 44 43 38 28 24 28 27 27 28 28 28 24 24 25 29 26 27 26 26 27 27 32 30 30 33 31 33 28 29 27 26 25 24 24 23 22 20 20 24 26
45 44 45 45 45 42 37 36 34 31 27 27 25 27 27 28 29 30 29 27 26 29 29 35 35 37 34 33 32 29 29 30 27 25 28 26 23 25 23 22 37 34 27 39
44 45 45 46 45 43 38 36 32 28 23 24 22 20 21 22 23 28 31 31 31 32 38 37 35 35 35 34 33 33 28 28 28 26 24 16 24 31 36 37 37 38 37 38
45 45 45 46 46 45 40 38 35 31 23 22 22 23 24 25 29 29 29 30 35 38 37 31 27 26 27 28 30 31 30 29 26 23 22 24 26 34 36 34 35 39 38 40
45 45 45 46 46 46 43 40 39 35 29 24 23 24 27 26 26 28 30 37 40 39 32 30 24 21 25 26 27 28 30 30 26 26 22 19 33 36 37 37 34 36 38 38
46 46 46 46 46 46 44 41 40 37 31 29 29 26 26 28 29 29 31 31 34 37 30 27 24 22 24 21 27 27 28 28 26 25 24 26 37 39 39 26 32 37 37 39
46 46 47 46 46 45 44 41 41 37 33 31 33 30 30 31 31 29 32 31 33 34 30 27 24 22 25 27 30 32 28 27 26 27 24 21 38 37 32 36 39 37 37 39
46 46 46 46 46 45 43 39 41 42 37 36 38 37 37 37 37 35 37 35 34 34 29 28 28 24 28 30 26 36 29 30 28 28 27 39 39 36 37 36 34 35 36 37
46 46 46 46 46 45 44 40 42 40 36 35 34 32 34 37 39 41 32 36 37 37 37 34 31 26 31 28 30 32 37 38 33 34 38 37 36 35 35 35 35 35 34 34
46 46 46 46 46 45 43 40 42 39 36 31 28 33 34 35 34 41 40 37 41 41 40 34 29 28 35 32 35 34 35 35 35 36 36 34 33 33 33 33 34 34 32 32
46 46 46 46 46 44 43 42 42 39 35 29 31 35 33 35 35 37 41 41 39 38 35 29 28 34 34 34 36 31 35 33 30 29 34 36 31 31 32 31 32 31 31 29
45 45 46 46 46 44 42 35 42 42 40 36 25 35 35 36 37 38 39 40 40 40 34 31 35 38 36 32 29 32 31 33 35 32 34 35 32 29 29 31 28 27 26 26
45 45 46 46 46 42 37 34 38 42 42 35 29 28 34 38 38 37 37 39 37 39 37 33 35 37 37 32 26 29 31 32 33 31 31 30 28 27 28 29 27 27 24 23
45 46 45 46 46 42 39 43 44 42 40 38 29 28 33 40 35 36 40 37 38 38 36 37 36 38 36 24 27 28 29 31 29 29 28 27 27 26 25 26 26 24 23 22
46 46 46 42 38 36 39 44 43 43 39 31 31 26 28 38 37 38 38 38 32 36 34 34 36 28 21 25 25 24 26 26 23 23 23 24 25 26 24 23 23 22 22 21
45 41 36 32 39 44 44 38 35 35 38 37 31 34 31 36 35 34 34 35 32 30 33 36 26 22 26 26 24 23 24 23 23 21 20 21 22 24 22 21 21 20 19 19
41 36 35 41 43 39 35 31 31 33 29 30 31 34 33 37 32 32 33 32 32 26 29 31 24 20 23 22 21 22 22 22 21 20 19 19 21 21 20 18 17 17 17 17
40 40 42 41 37 34 31 28 30 26 25 32 27 32 35 35 36 33 33 27 30 21 33 26 14 20 23 19 19 20 21 20 18 18 17 18 18 19 17 16 16 17 16 16
38 36 33 31 29 24 18 24 27 27 30 33 33 33 31 33 34 32 32 27 24 32 21 15 16 20 20 19 18 18 18 17 16 15 16 16 15 15 14 13 13 12 11 11
29 24 13 17 19 17 19 23 23 26 29 30 32 32 30 32 29 30 27 28 29 22 14 7 16 19 20 19 19 17 17 17 15 12 12 12 11 10 11 11 11 9 9 10
24 23 15 16 21 21 22 26 26 28 30 30 32 32 31 27 20 26 27 20 13 13 7 12 17 19 19 19 18 17 15 10 10 6 9 6 7 10 10 11 10 10 9 9
23 21 20 23 16 16 18 20 21 28 28 29 30 22 19 16 16 13 10 14 6 7 11 16 17 13 14 15 17 13 11 10 9 9 10 9 8 8 9 11 11 10 9 6
20 18 22 23 20 18 17 20 22 28 27 23 26 17 18 23 14 11 15 7 9 14 16 16 13 15 15 13 13 14 14 12 11 10 10 11 13 12 11 9 10 11 10 9

GFSNW_sfc_dewp_102.txt.gz
Dewpoint
41 41 42 42 42 41 38 32 21 29 40 28 27 17 23 25 24 25 25 28 28 29 29 27 28 28 30 34 33 34 34 31 25 20 26 33 20 22 20 19 19 24 20 18
41 42 42 43 42 41 39 30 28 33 36 18 24 22 28 27 25 26 25 25 27 30 29 22 28 31 34 35 35 33 34 30 25 23 27 28 29 30 27 27 24 21 21 20
41 42 43 43 42 42 37 30 22 24 31 33 29 27 25 25 28 28 27 25 25 23 26 28 25 29 34 36 36 39 36 31 27 23 25 26 26 28 30 26 23 21 21 25
42 43 44 44 43 42 36 33 23 25 20 29 28 29 27 25 25 25 28 25 28 28 25 24 27 31 31 34 36 37 36 28 30 31 33 30 27 28 27 25 23 22 23 25
42 43 44 44 44 43 35 29 23 26 27 26 26 25 25 26 24 27 27 26 27 29 27 27 27 27 30 32 36 34 36 30 32 28 30 27 25 29 29 28 28 27 25 26
42 43 44 45 44 42 36 33 31 29 23 24 22 23 25 26 25 25 29 26 27 27 30 31 30 30 31 33 32 32 32 30 27 22 28 25 22 23 27 34 36 35 28 36
42 43 44 45 44 43 37 35 31 28 20 24 23 22 24 23 23 24 25 28 28 30 37 36 34 35 34 34 34 34 31 28 27 25 24 13 30 36 35 35 36 37 36 36
42 43 44 44 45 45 39 38 33 30 18 23 22 23 23 25 25 25 26 27 30 38 37 32 28 26 27 29 33 33 34 28 25 23 22 21 31 34 35 34 35 37 37 39
41 43 44 44 45 45 43 39 39 35 26 23 24 22 23 23 25 26 27 32 35 36 33 29 24 21 23 23 27 31 32 30 26 25 21 15 26 37 38 38 31 37 36 39
41 42 43 45 45 45 43 41 39 37 30 29 28 25 25 27 27 27 28 31 30 35 28 27 24 23 24 20 23 26 28 28 25 24 23 24 32 37 38 25 26 36 38 40
41 42 43 45 45 46 45 41 39 37 33 30 31 29 27 28 30 25 27 25 31 31 28 27 27 24 24 27 29 25 27 25 25 25 23 19 35 36 28 32 36 36 36 36
41 41 43 44 45 46 45 39 41 41 36 35 38 36 35 33 31 30 32 29 33 31 32 32 31 27 26 26 22 33 29 32 29 27 25 34 34 34 35 35 33 33 32 33
40 42 43 44 45 45 45 40 41 39 34 35 34 32 35 37 37 37 31 31 34 35 37 35 34 29 28 23 27 31 35 35 32 33 35 34 35 34 33 32 30 30 30 30
41 42 44 45 45 45 45 41 41 39 36 28 27 32 32 35 36 37 36 34 37 37 36 33 33 29 32 28 33 32 33 34 32 32 34 34 33 35 34 30 30 29 28 27
42 43 44 45 45 46 45 42 41 40 36 29 28 32 33 34 35 35 36 35 34 32 33 32 31 31 31 32 33 29 33 29 28 27 32 33 32 34 28 27 26 25 25 25
42 43 45 45 45 46 41 34 41 41 40 34 25 30 32 34 34 34 35 35 34 37 35 32 34 35 33 29 27 30 32 32 32 29 33 33 34 33 31 25 24 22 21 21
44 45 45 45 44 44 37 33 36 42 42 34 27 26 30 35 34 33 35 38 35 36 36 34 33 32 34 30 26 29 30 30 30 31 34 30 29 28 29 25 23 23 20 19
44 45 45 45 45 43 38 40 43 41 38 37 25 25 28 39 30 32 37 34 35 36 36 36 33 35 32 25 25 25 26 28 26 27 29 31 28 25 23 23 22 21 20 19
44 44 45 44 39 35 38 44 43 42 38 29 30 24 20 38 35 34 34 33 31 35 32 31 33 28 19 24 24 22 22 22 22 26 22 25 23 21 20 20 19 19 19 18
45 43 34 30 34 44 43 39 34 35 36 36 30 30 28 33 34 33 33 34 30 28 30 31 26 19 23 24 24 23 21 20 19 20 18 19 20 20 18 17 18 18 18 17
38 32 32 39 43 38 34 30 30 32 29 32 31 31 30 36 30 32 34 31 31 25 30 27 21 17 20 22 21 20 19 18 17 17 18 19 18 18 18 16 16 15 14 13
37 39 41 39 35 32 30 28 30 27 24 27 29 32 35 34 34 31 32 30 30 24 32 22 11 18 21 20 19 18 18 17 16 16 16 16 16 16 15 14 13 13 12 12
38 35 32 32 26 24 21 21 23 24 30 32 33 32 31 33 34 32 31 26 25 31 19 10 13 19 19 18 17 15 14 14 13 13 13 13 12 12 12 10 10 10 8 9
28 25 11 19 9 12 12 23 25 27 28 32 32 30 30 31 29 29 25 28 30 20 6 4 14 18 18 18 16 14 13 12 11 9 8 9 8 7 7 6 4 4 4 5
24 21 14 10 16 18 19 21 27 27 30 31 31 29 27 23 22 19 19 14 9 11 6 5 15 18 17 16 15 13 10 7 5 3 5 3 4 6 5 5 3 4 3 4
21 18 15 18 14 14 19 22 24 27 28 29 26 20 14 16 12 11 7 14 5 3 7 14 16 11 13 12 12 9 7 5 3 3 5 5 3 4 5 6 4 2 2 1
19 15 19 11 13 10 15 19 22 27 27 12 19 11 13 15 7 5 9 -0 -1 6 11 11 11 14 11 12 13 12 11 8 7 7 9 6 5 6 7 5 7 9 7 5

GFSNW_sfc_dewp_105.txt.gz
Dewpoint
40 41 42 42 42 41 37 32 23 31 40 28 27 23 22 27 21 25 25 25 26 25 27 25 25 28 30 33 35 33 35 31 24 20 23 31 21 19 17 15 17 21 17 14
41 42 43 43 42 41 37 30 27 33 37 21 24 24 25 28 26 25 27 24 25 25 25 23 27 28 33 36 34 34 33 30 24 23 29 27 28 28 23 25 23 17 18 17
40 41 43 43 43 42 38 29 21 24 34 32 26 25 23 24 28 27 28 27 28 28 23 28 26 27 32 35 35 39 35 30 27 19 24 29 25 26 28 26 22 19 20 21
39 41 43 44 44 43 36 33 25 26 20 28 26 26 26 25 25 27 28 25 24 26 25 24 25 29 28 30 36 37 35 29 29 29 30 31 28 26 26 24 23 21 23 24
39 41 43 44 43 41 35 26 26 27 27 26 25 24 21 25 22 23 26 21 23 26 26 28 27 26 27 28 32 33 36 29 30 28 30 28 23 24 28 28 27 28 27 26
39 41 43 44 44 41 37 33 32 30 24 23 23 23 24 23 24 22 25 25 24 24 27 32 33 33 31 29 29 31 34 31 27 20 27 24 17 23 26 29 35 34 27 34
38 41 43 44 45 42 39 35 33 30 22 22 21 21 22 22 21 21 22 25 26 28 36 37 34 35 33 32 32 32 32 30 28 23 24 14 31 37 33 32 34 36 34 37
38 41 42 44 44 45 40 39 35 30 24 22 22 23 23 24 25 23 23 26 29 36 37 30 28 27 28 29 32 32 33 30 26 22 21 21 28 35 35 34 33 37 38 39
38 41 42 43 44 44 42 39 40 36 28 24 23 22 23 22 24 26 27 32 36 38 33 30 24 19 23 22 28 32 34 33 27 25 18 16 28 37 37 38 29 36 37 39
37 40 42 43 44 44 43 40 40 37 31 29 28 25 24 26 27 26 28 30 31 34 30 27 25 23 24 19 22 27 27 30 27 23 20 21 33 35 38 27 29 38 37 38
36 39 41 42 43 45 44 41 40 37 33 31 31 29 27 27 30 26 28 28 32 31 28 27 28 26 25 26 29 28 27 26 25 25 21 16 34 35 30 35 36 35 35 35
36 39 41 41 43 44 45 40 41 42 36 35 37 36 34 32 31 30 30 30 32 32 28 30 32 28 29 27 21 32 28 32 30 27 28 34 35 34 33 35 33 32 33 33
36 38 41 41 43 44 45 41 41 39 35 34 35 32 35 38 37 37 30 33 34 35 36 34 32 28 32 27 26 30 34 36 32 33 34 34 33 32 31 30 30 29 29 29
36 39 41 42 43 44 44 41 41 39 36 29 28 33 32 35 37 37 37 34 37 38 37 32 30 27 34 31 32 31 33 34 30 32 33 34 33 34 33 31 29 27 26 25
36 39 40 42 43 44 45 43 42 41 36 30 29 33 33 34 36 36 36 35 34 34 32 32 29 33 34 34 34 28 31 28 27 26 31 32 31 32 31 28 25 24 24 23
37 39 41 42 44 45 41 33 41 41 40 35 26 32 32 35 35 35 35 35 35 35 33 32 35 36 36 30 28 30 32 31 30 29 33 32 32 31 31 27 22 21 21 21
38 40 42 43 45 43 37 35 37 42 42 34 27 26 30 35 34 35 35 36 36 35 33 34 34 34 35 30 27 28 29 29 29 32 33 29 30 28 29 23 22 22 19 19
39 41 43 45 45 43 38 42 42 41 38 35 25 25 29 37 34 32 37 33 35 36 35 35 32 33 33 28 26 25 26 27 26 27 30 28 26 24 22 22 21 20 19 18
41 43 44 44 39 35 38 44 43 43 37 28 28 25 23 38 35 35 35 36 30 35 33 35 34 30 26 24 23 22 21 20 20 24 24 24 22 20 19 19 19 18 18 18
42 43 38 31 35 43 43 36 34 35 36 35 29 30 27 33 33 32 32 33 31 29 30 33 30 23 23 23 22 21 19 18 18 22 18 18 19 18 17 17 16 17 16 15
40 32 32 38 42 39 34 30 30 30 27 30 30 30 29 36 31 32 34 29 31 24 29 29 23 19 20 22 20 19 17 17 17 17 18 17 18 18 17 15 14 13 13 13
36 38 41 40 36 33 29 27 29 26 24 29 28 30 34 35 36 32 32 30 31 25 31 26 18 17 20 19 18 17 17 16 15 15 15 15 15 15 14 13 12 12 11 11
40 36 32 32 28 26 22 20 24 24 27 30 33 32 34 34 35 32 32 28 27 32 22 14 15 18 19 18 15 14 13 12 12 12 12 12 11 11 12 10 10 10 9 10
31 28 20 24 19 17 18 22 25 28 30 33 33 31 32 32 30 29 26 27 30 20 16 11 16 18 17 17 15 12 12 11 10 9 10 9 8 8 8 8 8 7 7 7
24 22 15 12 17 19 21 25 28 28 30 32 31 29 28 24 24 21 24 20 13 13 12 12 17 18 16 15 14 12 10 8 8 8 7 7 8 7 7 7 8 7 6 6
21 17 17 20 17 18 21 23 25 27 29 31 28 23 19 17 15 14 10 15 11 10 12 16 16 15 14 13 12 10 9 8 8 8 8 7 6 7 7 7 6 5 5 4
18 15 16 14 12 14 19 21 22 27 26 23 21 17 15 15 11 8 9 9 10 12 14 15 15 13 11 11 12 11 11 10 10 10 9 9 10 9 8 7 9 8 8 6